Location: Banff
(51.1667°N, 115.5667°W)
Time: 06:47:02
(UTC+00:00)

S-56A Canister/Altair - Pass Details

Date: 02 December 2020
Orbit: 633 x 2499 km, 38.9° (Epoch: 21 January)

Event Time Altitude Azimuth Distance (km) Brightness Sun altitude
Rises 01:57:46 0° 223° (SW) 5,922 12.9 -21.0°
Reaches altitude 10° 02:02:34 10° 214° (SW) 4,700 12.1 -21.7°
Maximum altitude 02:12:39 30° 161° (SSE) 2,797 10.2 -23.3°
Enters shadow 02:16:21 24° 128° (SE) 2,848 10.0 -23.9°
Drops below altitude 10° 02:20:09 10° 105° (ESE) 3,457 - -24.4°
Sets 02:23:05 0° 94° (E) 4,174 - -24.9°
